Regional Weather Roundup
Issued by NWS

Home | Current Version | Previous Version | Text Only | Print | Product List | Glossary Off
Versions: 1 2 3 4 5 6 7 8 9 10 11 12 13 14 15 16 17 18 19 20 21 22 23 24 25 26 27 28

000
ASUS45 KBOU 241910
RWRCO

WEATHER ROUNDUP FOR COLORADO
NATIONAL WEATHER SERVICE DENVER/BOULDER CO
100 PM MDT SAT SEP 24 2016

NOTE: "FAIR" INDICATES FEW OR NO CLOUDS BELOW 12000 FEET WITH NO
SIGNIFICANT WEATHER AND/OR OBSTRUCTIONS TO VISIBILITY.

COZ001>005-013-030-031-242000-
...NORTHWEST COLORADO...

CITY           SKY/WX    TMP DP  RH WIND       PRES   REMARKS
CRAIG          CLOUDY    49  36  61 SW20      30.17S
HAYDEN         CLOUDY    46  34  61 SW10G20   30.18S
MEEKER         CLOUDY    47  40  76 SW10      30.21R
MOUNT WERNER   NOT AVBL
STEAMBOAT SPGS CLOUDY    40  37  91 W7        30.19R
WALDEN           N/A     46  28  49 SW20G26   30.17R
$$

COZ006>008-011-242000-
...WEST CENTRAL VALLEYS...

CITY           SKY/WX    TMP DP  RH WIND       PRES   REMARKS
GRAND JUNCTION CLOUDY    55  41  59 N5        30.19S
MONTROSE       CLOUDY    53  37  54 N8        30.23R
EAGLE          PTSUNNY   50  37  62 SW14G23   30.21S
RIFLE          CLOUDY    49  43  80 E3        30.21S
DELTA          NOT AVBL
NUCLA          NOT AVBL
$$

COZ017>023-064>068-242000-
...SOUTHWEST COLORADO...

CITY           SKY/WX    TMP DP  RH WIND       PRES   REMARKS
DURANGO        CLOUDY    57  33  40 SW12      30.22F
CORTEZ         CLOUDY    57  38  48 CALM      30.22F
PAGOSA SPRINGS CLOUDY    51  32  48 CALM      30.24F
TELLURIDE      CLOUDY    41  31  67 CALM      30.32S
WOLF CREEK PAS CLOUDY    30  30 100 S6        30.39S WCI  24
$$

COZ009-010-012-014-032>034-037-058>063-242000-
...CENTRAL COLORADO...

CITY           SKY/WX    TMP DP  RH WIND       PRES   REMARKS
ASPEN          LGT RAIN  47  36  65 N14       30.20R
BUENA VISTA    PTSUNNY   55  23  28 W14G24    30.16F
COPPER MTN     CLOUDY    34  25  69 W12G18    30.29R WCI  25
BERTHOUD PASS  CLOUDY    27  12  54 W21G26    30.27R HAZE    WCI  13
COTTONWOOD PAS FAIR      46  23  39 SW14G25   30.22S
GUNNISON       CLOUDY    42  33  70 VRB3      30.25S
KREMMLING      FAIR      52  32  46 W12G21    30.19S
LEADVILLE      FAIR      41  23  48 NW17G24   30.21S
MONARCH PASS   CLOUDY    27  25  93 W37G49    30.38R WCI   9
SALIDA         PTSUNNY   57  28  33 SW18G28   30.25S
SUNLIGHT       LGT SNOW  32  32 100 MISG      30.32R VSB 3/4
WILKERSON PASS PTSUNNY   39  23  52 SW7       30.28S
$$

COZ069>075-242000-
...SAN LUIS VALLEY/SANGRE DE CRISTO MOUNTAINS...

CITY           SKY/WX    TMP DP  RH WIND       PRES   REMARKS
ALAMOSA        FAIR      54  29  38 VRB3      30.20F
LA VETA PASS   FAIR      45  28  53 MISG      30.27S
SAGUACHE       NOT AVBL
$$

COZ035-036-038>040-242000-
...NORTHERN COLORADO FRONT RANGE...

CITY           SKY/WX    TMP DP  RH WIND       PRES   REMARKS
DENVER INTL AP FAIR      68  20  16 NW7       30.01F
DMNS CITY PARK   N/A     69  21  16 S10       30.00F
AURORA         MOSUNNY   66  21  17 NE3       30.02F
FRONT RANGE AP MOSUNNY   68  21  17 SW9       30.03F
ERIE MUNI ARPT FAIR      70  23  17 NW9G16    30.00F
BOULDER MUN AP   N/A     64  28  25 W20G31    30.01S
CENTENNIAL     FAIR      65  21  18 MISG      30.02F
BROOMFIELD     MOSUNNY   66  21  18 MISG      30.04F
FORT COLLINS   FAIR      66  32  28 SW6       30.01S
LONGMONT       FAIR      71  28  20 W14G25    30.02S
$$

COZ041-046-047-076>085-087-088-242000-
...PIKES PEAK/PALMER DIVIDE AND SOUTHERN FOOTHILLS...

CITY           SKY/WX    TMP DP  RH WIND       PRES   REMARKS
COLO. SPRINGS  FAIR      66  21  18 W6        30.07F
A. F. ACADEMY  FAIR      65  22  19 W12G22    30.06F
SCHRIEVER AFB  NOT AVBL
ELLICOTT       FAIR     N/A N/A N/A VRB6      30.06F
FALCON         FAIR      64  20  19 W5G16     30.10F
FORT CARSON    FAIR      67  24  19 NW8       30.03F
LIMON          FAIR      68  21  16 VRB7      30.03F
MONUMENT HILL  FAIR      61  23  23 W10G18    30.10F
TRINIDAD       FAIR      68  21  16 VRB6      30.07F
$$

COZ042>045-048>051-090-091-242000-
...NORTHEAST COLORADO...

CITY           SKY/WX    TMP DP  RH WIND       PRES   REMARKS
GREELEY ARPT   FAIR      68  32  26 SW7       30.01F
AKRON          FAIR      68  25  19 SW8       30.01F
BURLINGTON     FAIR      68  38  33 E5        30.03S
WRAY           FAIR      72  34  25 CALM      30.00F
STERLING       FAIR      70  32  24 W5        29.98F
HOLYOKE        FAIR      73  34  23 W7        29.99F
FORT MORGAN    FAIR      71  23  16 SW7       30.00F
$$

COZ086-089-092>099-242000-
...SOUTHEAST COLORADO...

CITY           SKY/WX    TMP DP  RH WIND       PRES   REMARKS
PUEBLO         FAIR      71  21  15 CALM      30.01F
LA JUNTA       FAIR      72  25  17 VRB5      30.02F
LAMAR          FAIR      72  37  28 VRB6      29.99F
SPRINGFIELD    NOT AVBL
$$




USA.gov is the U.S. government's official web portal to all federal, state and local government web resources and services.